Dauntless Aviation
Greetings, Guest! To participate, [sign up for a free account] or [log in]
Airports Europe France
LFIY

Saint Jean d'Angely

FRANCE

Airport Info
Edit

Location

Latitude / Longitude: 45°57'59"N / 0°31'31"W
  45°57.984'N / 0°31.518'W
  45.9664 / -0.5253

Runway Information

Runway 10 /28

Dimensions: 2789 x 164 ft.
Surface: U
 
Runway 10
Runway 28
Latitude: 45.966636 45.965728
Longitude: -0.528086 -0.518369
Elevation: 243 ft. 243 ft.
Runway true heading: 95.7 275.7
 

Instrument Procedures

IAPs (Instrument Approach Procedures)

  Visual Approch Chart
Satellite photo at:
Airport distance calculator
From:
Weather Reports

METAR

LFBG
20.0nm SE
LFBG 040300Z AUTO 25004KT 9999 ///CB 19/18 Q1017
LFBH
27.2nm W
LFBH 040300Z AUTO 31008KT CAVOK 17/13 Q1016
LFBU
34.5nm E
LFBU 040300Z AUTO VRB03KT 9999 -RA ///CB 17/17 Q1017

TAF

LFBG
20.0nm SE
TAF LFBG 032300Z 0400/0424 26010KT 9999 SCT080CB TEMPO 0400/0404 VRB15G30KT 3000 TSRA BKN008 BKN080CB PROB30 TEMPO 0400/0402 VRB15G35KT 2000 TSGS BKN008 BKN080CB BECMG 0404/0406 SCT025
LFBH
27.2nm W
TAF AMD LFBH 040022Z 0400/0424 30012KT 9999 SCT015 BKN090 TEMPO 0400/0404 5000 SHRA SCT010 BKN030TCU PROB30 TEMPO 0400/0402 VRB15G30KT 3000 TSRA SCT005 BKN030CB TEMPO 0400/0406 BKN005 BECMG 0404/0407 BKN020 BECMG 0412/0415 CAVOK BECMG 0421/0424 36006KT
LFBU
34.5nm E
TAF LFBU 031700Z 0318/0418 24012KT CAVOK BECMG 0319/0321 30010KT SCT085CB TEMPO 0321/0407 3000 TSRA BKN015 BKN080CB PROB30 TEMPO 0400/0405 1000 TSRAGR BKN007 BKN080CB BECMG 0407/0409 BKN016
Safelog

 

Dauntless Aviation

© 2007-2015 Dauntless Aviation, all rights reserved
Information provided via PilotNav comes from a variety of official and unofficial data sources. As errors are possible, do not use PilotNav for primary flight planning purposes. Verify any information that you receive via PilotNav with current and canonical charts and other official documents. The material in this database is subject to database copyrights held by Dauntless Aviation and may not be copied without the express permission of Dauntless Aviation - licenses for use of part of all of this data are available for purchase; enquire via the Dauntless Aviation helpdesk. A number of mechanisms and markers exist in the database to protect against and identify infringement / copyright. Automated queries against this website are stictly prohibited, and all activity is logged and analyzed.